Regional Weather Roundup
Issued by NWS

Home | Current Version | Previous Version | Graphics & Text | Print | Product List | Glossary On
Versions: 1 2 3 4 5 6 7 8 9 10 11 12 13 14 15 16 17 18 19 20 21 22 23 24 25 26 27 28 29 30 31 32 33 34 35 36 37 38 39 40 41 42 43 44 45 46 47 48 49 50
000
ASUS43 KFSD 260402
RWRSD

WEATHER ROUNDUP FOR SOUTH DAKOTA
NATIONAL WEATHER SERVICE SIOUX FALLS SD
1100 PM CDT WED MAY 25 2016

NOTE: "FAIR" INDICATES FEW OR NO CLOUDS BELOW 12,000 FEET WITH NO
SIGNIFICANT WEATHER AND/OR OBSTRUCTIONS TO VISIBILITY.


SDZ001>005-009-010-012>017-260500-
NORTHWEST AND NORTH CENTRAL SOUTH DAKOTA

CITY           SKY/WX    TMP DP  RH WIND       PRES   REMARKS
BUFFALO          N/A     54  44  69 NW6       29.81R
FAITH            N/A     54  41  61 CALM      29.87R
MOBRIDGE       CLEAR     55  49  80 W6        29.79R
$$

SDZ012>016-024>037-041>051-057-063-072>074-260500-
SOUTHWEST AND SOUTH CENTRAL SOUTH DAKOTA

CITY           SKY/WX    TMP DP  RH WIND       PRES   REMARKS
RAPID CTY ARPT CLEAR     50  47  89 N8        29.90S
PIERRE         CLEAR     58  48  69 NW6       29.82R
CUSTER         CLOUDY    48  39  71 E7        29.96F
ELLSWORTH AFB  CLEAR     51  48  91 W5        29.90S
PHILIP         PTCLDY    55  50  83 W6        29.87R
PINE RIDGE     CLEAR     48  42  80 E5        29.91R
WINNER         FAIR      62  53  72 CALM      29.87R
$$

SDZ004>011-016>023-039-040-260500-
NORTHEAST SOUTH DAKOTA

CITY           SKY/WX    TMP DP  RH WIND       PRES   REMARKS
ABERDEEN       CLEAR     58  53  84 SW5       29.78R
WATERTOWN      CLOUDY    62  50  64 S13       29.78F
BROOKINGS      CLOUDY    62  53  72 E8        29.80F
SISSETON         N/A     67  53  61 W9        29.74R
$$

SDZ017-020-022-023-036>040-048>070-260500-
SOUTHEAST SOUTH DAKOTA

CITY           SKY/WX    TMP DP  RH WIND       PRES   REMARKS
SIOUX FALLS    TSTM      61  55  81 E10       29.79F
HURON          CLOUDY    58  55  90 W6        29.80R
MITCHELL       CLOUDY    64  60  87 NE5       29.81R
YANKTON        CLOUDY    61  55  82 S9        29.80R
$$

ABBREVIATIONS USED IN REMARKS
   TC - TEMPERATURE IN CELSIUS
  WCI - WIND CHILL INDEX
   HX - HEAT INDEX
  VSB - VISIBILITY




USA.gov is the U.S. government's official web portal to all federal, state and local government web resources and services.